Time,TemperatureF,DewpointF,PressureIn,WindDirection,WindDirectionDegrees,WindSpeedMPH,WindSpeedGustMPH,Humidity,HourlyPrecipIn,Conditions,Clouds,dailyrainin,SoftwareType,DateUTC
2013-01-04 00:00:00,46.0,37.8,30.33,NNE,27,6.0,9.0,73,0.00,,,0.00,Wunderground v.1.15,2013-01-04 07:00:00,
2013-01-04 00:05:00,46.0,37.8,30.33,North,354,6.0,11.0,73,0.00,,,0.00,Wunderground v.1.15,2013-01-04 07:05:00,
2013-01-04 00:15:00,46.0,37.8,30.33,NNE,16,7.0,11.0,73,0.00,,,0.00,Wunderground v.1.15,2013-01-04 07:15:00,
2013-01-04 00:20:00,46.1,37.9,30.34,NNW,330,7.0,7.0,73,0.00,,,0.00,Wunderground v.1.15,2013-01-04 07:20:00,
2013-01-04 00:25:00,46.1,37.9,30.33,ENE,61,6.0,11.0,73,0.00,,,0.00,Wunderground v.1.15,2013-01-04 07:25:00,
2013-01-04 00:35:00,46.1,37.9,30.33,NNW,339,7.0,11.0,73,0.00,,,0.00,Wunderground v.1.15,2013-01-04 07:35:00,
2013-01-04 00:40:00,46.1,37.9,30.33,North,1,7.0,11.0,73,0.00,,,0.00,Wunderground v.1.15,2013-01-04 07:40:00,
2013-01-04 00:45:00,46.1,37.9,30.33,NNW,341,7.0,11.0,73,0.00,,,0.00,Wunderground v.1.15,2013-01-04 07:45:00,
2013-01-04 00:50:00,46.1,38.3,30.33,NNW,338,7.0,7.0,74,0.00,,,0.00,Wunderground v.1.15,2013-01-04 07:50:00,
2013-01-04 00:55:00,46.1,38.3,30.33,North,6,7.0,11.0,74,0.00,,,0.00,Wunderground v.1.15,2013-01-04 07:55:00,
2013-01-04 01:05:00,46.1,38.3,30.33,NNE,22,6.0,10.0,74,0.00,,,0.00,Wunderground v.1.15,2013-01-04 08:05:00,
2013-01-04 01:15:00,46.2,38.4,30.33,NNW,347,6.0,10.0,74,0.00,,,0.00,Wunderground v.1.15,2013-01-04 08:15:00,
2013-01-04 01:25:00,46.1,38.6,30.34,NNW,331,6.0,10.0,75,0.00,,,0.00,Wunderground v.1.15,2013-01-04 08:25:00,
2013-01-04 01:30:00,45.9,38.4,30.34,NNE,13,7.0,10.0,75,0.00,,,0.00,Wunderground v.1.15,2013-01-04 08:30:00,
2013-01-04 01:35:00,45.8,38.3,30.33,NNW,341,8.0,10.0,75,0.00,,,0.00,Wunderground v.1.15,2013-01-04 08:35:00,
2013-01-04 01:45:00,45.7,38.2,30.33,NNW,347,8.0,12.0,75,0.00,,,0.00,Wunderground v.1.15,2013-01-04 08:45:00,
2013-01-04 01:50:00,45.7,38.2,30.32,NW,325,9.0,10.0,75,0.00,,,0.00,Wunderground v.1.15,2013-01-04 08:50:00,
2013-01-04 01:55:00,45.7,38.2,30.32,NE,56,8.0,10.0,75,0.00,,,0.00,Wunderground v.1.15,2013-01-04 08:55:00,
2013-01-04 02:00:00,45.9,38.4,30.33,NNW,342,8.0,13.0,75,0.00,,,0.00,Wunderground v.1.15,2013-01-04 09:00:00,
2013-01-04 02:05:00,46.0,38.5,30.32,NNW,338,10.0,17.0,75,0.00,,,0.00,Wunderground v.1.15,2013-01-04 09:05:00,
2013-01-04 02:15:00,46.1,38.3,30.32,NW,325,9.0,17.0,74,0.00,,,0.00,Wunderground v.1.15,2013-01-04 09:15:00,
2013-01-04 02:20:00,46.2,38.4,30.33,North,354,9.0,9.0,74,0.00,,,0.00,Wunderground v.1.15,2013-01-04 09:20:00,
2013-01-04 02:25:00,46.3,38.5,30.34,NNW,339,9.0,17.0,74,0.00,,,0.00,Wunderground v.1.15,2013-01-04 09:25:00,
2013-01-04 02:35:00,46.3,38.5,30.34,NNW,347,10.0,11.0,74,0.00,,,0.00,Wunderground v.1.15,2013-01-04 09:35:00,
2013-01-04 02:40:00,46.3,38.5,30.34,NW,315,10.0,17.0,74,0.00,,,0.00,Wunderground v.1.15,2013-01-04 09:40:00,
2013-01-04 02:45:00,46.3,38.5,30.34,NNE,23,9.0,17.0,74,0.00,,,0.00,Wunderground v.1.15,2013-01-04 09:45:00,
2013-01-04 02:50:00,46.4,38.9,30.34,NNW,339,9.0,17.0,75,0.00,,,0.00,Wunderground v.1.15,2013-01-04 09:50:00,
2013-01-04 03:00:00,46.3,38.5,30.34,NNW,347,9.0,17.0,74,0.00,,,0.00,Wunderground v.1.15,2013-01-04 10:00:00,
2013-01-04 03:05:00,46.4,38.6,30.34,North,4,10.0,17.0,74,0.00,,,0.00,Wunderground v.1.15,2013-01-04 10:05:00,
2013-01-04 03:15:00,46.4,38.6,30.33,ENE,78,10.0,15.0,74,0.00,,,0.00,Wunderground v.1.15,2013-01-04 10:15:00,
2013-01-04 03:20:00,46.4,38.6,30.33,North,6,10.0,10.0,74,0.00,,,0.00,Wunderground v.1.15,2013-01-04 10:20:00,
2013-01-04 03:25:00,46.5,38.7,30.34,NNW,342,10.0,12.0,74,0.00,,,0.00,Wunderground v.1.15,2013-01-04 10:25:00,
2013-01-04 03:30:00,46.5,38.7,30.34,NNW,331,10.0,10.0,74,0.00,,,0.00,Wunderground v.1.15,2013-01-04 10:30:00,
2013-01-04 03:40:00,46.6,38.8,30.34,North,9,10.0,10.0,74,0.00,,,0.00,Wunderground v.1.15,2013-01-04 10:40:00,
2013-01-04 03:45:00,46.7,38.9,30.34,NNW,348,10.0,16.0,74,0.00,,,0.00,Wunderground v.1.15,2013-01-04 10:45:00,
2013-01-04 03:50:00,46.7,38.9,30.34,NNW,340,11.0,11.0,74,0.00,,,0.00,Wunderground v.1.15,2013-01-04 10:50:00,
2013-01-04 03:55:00,46.7,38.9,30.34,North,349,11.0,15.0,74,0.00,,,0.00,Wunderground v.1.15,2013-01-04 10:55:00,
2013-01-04 04:00:00,46.7,38.9,30.34,NNW,341,11.0,11.0,74,0.00,,,0.00,Wunderground v.1.15,2013-01-04 11:00:00,
2013-01-04 04:05:00,46.7,38.9,30.34,NNE,16,10.0,13.0,74,0.00,,,0.00,Wunderground v.1.15,2013-01-04 11:05:00,
2013-01-04 04:15:00,46.6,38.8,30.34,NNW,342,12.0,20.0,74,0.00,,,0.00,Wunderground v.1.15,2013-01-04 11:15:00,
2013-01-04 04:25:00,46.4,39.2,30.34,NNE,19,11.0,20.0,76,0.00,,,0.00,Wunderground v.1.15,2013-01-04 11:25:00,
2013-01-04 04:30:00,46.4,39.2,30.35,NNE,25,12.0,20.0,76,0.00,,,0.00,Wunderground v.1.15,2013-01-04 11:30:00,
2013-01-04 04:35:00,46.4,39.2,30.35,North,354,12.0,20.0,76,0.00,,,0.00,Wunderground v.1.15,2013-01-04 11:35:00,
2013-01-04 04:40:00,46.4,39.2,30.35,North,5,11.0,20.0,76,0.00,,,0.00,Wunderground v.1.15,2013-01-04 11:40:00,
2013-01-04 04:50:00,46.5,39.0,30.36,NW,321,11.0,11.0,75,0.00,,,0.00,Wunderground v.1.15,2013-01-04 11:50:00,
2013-01-04 04:55:00,46.5,39.3,30.36,NNE,19,10.0,13.0,76,0.00,,,0.00,Wunderground v.1.15,2013-01-04 11:55:00,
2013-01-04 05:00:00,46.5,39.0,30.35,NNE,12,10.0,20.0,75,0.00,,,0.00,Wunderground v.1.15,2013-01-04 12:00:00,
2013-01-04 05:05:00,46.5,39.3,30.36,NNW,344,12.0,20.0,76,0.00,,,0.00,Wunderground v.1.15,2013-01-04 12:05:00,
2013-01-04 05:15:00,46.3,39.5,30.36,NNE,25,12.0,19.0,77,0.00,,,0.00,Wunderground v.1.15,2013-01-04 12:15:00,
2013-01-04 05:20:00,46.1,39.3,30.36,North,11,12.0,12.0,77,0.00,,,0.00,Wunderground v.1.15,2013-01-04 12:20:00,
2013-01-04 05:25:00,46.0,39.5,30.36,NE,36,11.0,19.0,78,0.00,,,0.00,Wunderground v.1.15,2013-01-04 12:25:00,
2013-01-04 05:35:00,45.7,39.6,30.36,NE,37,12.0,19.0,79,0.00,,,0.00,Wunderground v.1.15,2013-01-04 12:35:00,
2013-01-04 05:40:00,45.6,39.8,30.36,NE,34,13.0,19.0,80,0.00,,,0.00,Wunderground v.1.15,2013-01-04 12:40:00,
2013-01-04 05:45:00,45.4,39.9,30.36,NNE,12,12.0,19.0,81,0.00,,,0.00,Wunderground v.1.15,2013-01-04 12:45:00,
2013-01-04 05:50:00,45.1,39.9,30.37,NNE,22,11.0,19.0,82,0.00,,,0.00,Wunderground v.1.15,2013-01-04 12:50:00,
2013-01-04 06:00:00,44.8,40.3,30.36,NE,35,12.0,19.0,84,0.00,,,0.00,Wunderground v.1.15,2013-01-04 13:00:00,
2013-01-04 06:05:00,44.9,40.4,30.36,NNE,18,13.0,20.0,84,0.00,,,0.00,Wunderground v.1.15,2013-01-04 13:05:00,
2013-01-04 06:15:00,45.1,40.2,30.37,North,9,13.0,20.0,83,0.00,,,0.00,Wunderground v.1.15,2013-01-04 13:15:00,
2013-01-04 06:20:00,45.2,40.0,30.37,NNE,12,13.0,20.0,82,0.00,,,0.00,Wunderground v.1.15,2013-01-04 13:20:00,
2013-01-04 06:25:00,45.4,40.2,30.38,NNE,21,14.0,20.0,82,0.00,,,0.00,Wunderground v.1.15,2013-01-04 13:25:00,
2013-01-04 06:30:00,45.5,40.0,30.37,NNE,21,14.0,14.0,81,0.00,,,0.00,Wunderground v.1.15,2013-01-04 13:30:00,
2013-01-04 06:35:00,45.6,40.1,30.38,NNE,32,14.0,15.0,81,0.00,,,0.00,Wunderground v.1.15,2013-01-04 13:35:00,
2013-01-04 06:45:00,45.8,40.0,30.38,NE,47,15.0,20.0,80,0.00,,,0.00,Wunderground v.1.15,2013-01-04 13:45:00,
2013-01-04 06:50:00,45.9,39.8,30.38,NE,41,14.0,14.0,79,0.00,,,0.00,Wunderground v.1.15,2013-01-04 13:50:00,
2013-01-04 06:55:00,45.9,40.1,30.38,NNE,22,14.0,20.0,80,0.00,,,0.00,Wunderground v.1.15,2013-01-04 13:55:00,
2013-01-04 07:00:00,45.9,40.1,30.39,NNE,23,13.0,20.0,80,0.00,,,0.00,Wunderground v.1.15,2013-01-04 14:00:00,
2013-01-04 07:05:00,46.0,39.9,30.39,NNE,25,13.0,21.0,79,0.00,,,0.00,Wunderground v.1.15,2013-01-04 14:05:00,
2013-01-04 07:15:00,46.3,39.5,30.39,NNE,26,13.0,21.0,77,0.00,,,0.00,Wunderground v.1.15,2013-01-04 14:15:00,
2013-01-04 07:20:00,46.5,39.7,30.39,NE,41,13.0,13.0,77,0.00,,,0.00,Wunderground v.1.15,2013-01-04 14:20:00,
2013-01-04 07:30:00,46.5,39.7,30.40,NE,41,12.0,12.0,77,0.00,,,0.00,Wunderground v.1.15,2013-01-04 14:30:00,
2013-01-04 07:35:00,46.6,39.8,30.40,NE,49,12.0,21.0,77,0.00,,,0.00,Wunderground v.1.15,2013-01-04 14:35:00,
2013-01-04 07:40:00,46.7,39.9,30.41,NE,34,13.0,21.0,77,0.00,,,0.00,Wunderground v.1.15,2013-01-04 14:40:00,
2013-01-04 07:50:00,46.8,39.6,30.41,NNE,28,13.0,21.0,76,0.00,,,0.00,Wunderground v.1.15,2013-01-04 14:50:00,
2013-01-04 07:55:00,46.9,39.7,30.41,NNE,27,13.0,21.0,76,0.00,,,0.00,Wunderground v.1.15,2013-01-04 14:55:00,
2013-01-04 08:00:00,47.0,39.8,30.40,NNE,16,13.0,21.0,76,0.00,,,0.00,Wunderground v.1.15,2013-01-04 15:00:00,
2013-01-04 08:05:00,47.1,39.9,30.41,NNE,13,13.0,21.0,76,0.00,,,0.00,Wunderground v.1.15,2013-01-04 15:05:00,
2013-01-04 08:15:00,47.3,40.1,30.41,NNE,22,13.0,18.0,76,0.00,,,0.00,Wunderground v.1.15,2013-01-04 15:15:00,
2013-01-04 08:20:00,47.3,40.1,30.41,NNE,30,14.0,20.0,76,0.00,,,0.00,Wunderground v.1.15,2013-01-04 15:20:00,
2013-01-04 08:25:00,47.4,40.2,30.41,NE,39,14.0,20.0,76,0.00,,,0.00,Wunderground v.1.15,2013-01-04 15:25:00,
2013-01-04 08:30:00,47.5,40.0,30.41,NE,47,13.0,20.0,75,0.00,,,0.00,Wunderground v.1.15,2013-01-04 15:30:00,
2013-01-04 08:40:00,47.6,40.1,30.41,NE,38,12.0,20.0,75,0.00,,,0.00,Wunderground v.1.15,2013-01-04 15:40:00,
2013-01-04 08:45:00,47.6,40.1,30.41,NE,43,15.0,20.0,75,0.00,,,0.00,Wunderground v.1.15,2013-01-04 15:45:00,
2013-01-04 08:50:00,47.8,40.3,30.41,NNE,33,15.0,15.0,75,0.00,,,0.00,Wunderground v.1.15,2013-01-04 15:50:00,
2013-01-04 08:55:00,47.9,40.0,30.41,NNE,22,15.0,17.0,74,0.00,,,0.00,Wunderground v.1.15,2013-01-04 15:55:00,
2013-01-04 09:05:00,48.0,40.1,30.41,NE,51,16.0,24.0,74,0.00,,,0.00,Wunderground v.1.15,2013-01-04 16:05:00,
2013-01-04 09:15:00,48.0,40.1,30.41,NNE,25,17.0,24.0,74,0.00,,,0.00,Wunderground v.1.15,2013-01-04 16:15:00,
2013-01-04 09:20:00,48.1,39.9,30.41,NNE,27,17.0,24.0,73,0.00,,,0.00,Wunderground v.1.15,2013-01-04 16:20:00,
2013-01-04 09:25:00,48.1,39.9,30.41,NNE,30,17.0,24.0,73,0.00,,,0.00,Wunderground v.1.15,2013-01-04 16:25:00,
2013-01-04 09:30:00,48.0,39.8,30.41,NNE,30,18.0,24.0,73,0.00,,,0.00,Wunderground v.1.15,2013-01-04 16:30:00,
2013-01-04 09:35:00,48.1,39.9,30.41,NE,52,18.0,24.0,73,0.00,,,0.00,Wunderground v.1.15,2013-01-04 16:35:00,
2013-01-04 09:45:00,48.3,40.0,30.41,NNE,27,17.0,24.0,73,0.00,,,0.00,Wunderground v.1.15,2013-01-04 16:45:00,
2013-01-04 09:50:00,48.3,39.7,30.40,NE,46,18.0,26.0,72,0.00,,,0.00,Wunderground v.1.15,2013-01-04 16:50:00,
2013-01-04 09:55:00,48.3,39.7,30.40,NE,41,18.0,26.0,72,0.00,,,0.00,Wunderground v.1.15,2013-01-04 16:55:00,
2013-01-04 10:00:00,48.3,39.7,30.40,NE,43,18.0,18.0,72,0.00,,,0.00,Wunderground v.1.15,2013-01-04 17:00:00,
2013-01-04 10:05:00,48.3,39.7,30.40,NNE,12,18.0,21.0,72,0.00,,,0.00,Wunderground v.1.15,2013-01-04 17:05:00,
2013-01-04 10:15:00,48.3,39.7,30.40,NE,47,17.0,27.0,72,0.00,,,0.00,Wunderground v.1.15,2013-01-04 17:15:00,
2013-01-04 10:20:00,48.4,39.8,30.39,NNE,27,17.0,27.0,72,0.00,,,0.00,Wunderground v.1.15,2013-01-04 17:20:00,
2013-01-04 10:25:00,48.5,39.9,30.39,NNE,22,16.0,27.0,72,0.00,,,0.00,Wunderground v.1.15,2013-01-04 17:25:00,
2013-01-04 10:35:00,48.3,39.7,30.39,NNW,333,17.0,27.0,72,0.00,,,0.00,Wunderground v.1.15,2013-01-04 17:35:00,
2013-01-04 10:40:00,48.4,39.8,30.39,NNE,33,17.0,17.0,72,0.00,,,0.00,Wunderground v.1.15,2013-01-04 17:40:00,
2013-01-04 10:45:00,48.5,39.9,30.39,NNE,19,16.0,18.0,72,0.00,,,0.00,Wunderground v.1.15,2013-01-04 17:45:00,
2013-01-04 10:55:00,48.4,39.8,30.38,NNE,30,17.0,27.0,72,0.00,,,0.00,Wunderground v.1.15,2013-01-04 17:55:00,
2013-01-04 11:00:00,48.6,40.0,30.39,NNE,22,15.0,27.0,72,0.00,,,0.00,Wunderground v.1.15,2013-01-04 18:00:00,
2013-01-04 11:05:00,48.7,40.1,30.38,North,357,14.0,27.0,72,0.00,,,0.00,Wunderground v.1.15,2013-01-04 18:05:00,
2013-01-04 11:15:00,48.7,39.7,30.38,NNE,16,14.0,22.0,71,0.00,,,0.00,Wunderground v.1.15,2013-01-04 18:15:00,
2013-01-04 11:20:00,48.5,39.5,30.37,NE,43,15.0,22.0,71,0.00,,,0.00,Wunderground v.1.15,2013-01-04 18:20:00,
2013-01-04 11:30:00,48.5,39.5,30.36,NE,49,16.0,16.0,71,0.00,,,0.00,Wunderground v.1.15,2013-01-04 18:30:00,
2013-01-04 11:35:00,48.6,40.0,30.36,NNE,32,15.0,22.0,72,0.00,,,0.00,Wunderground v.1.15,2013-01-04 18:35:00,
2013-01-04 11:40:00,48.7,40.1,30.36,NE,40,14.0,14.0,72,0.00,,,0.00,Wunderground v.1.15,2013-01-04 18:40:00,
2013-01-04 11:45:00,48.6,40.0,30.36,NNE,30,13.0,19.0,72,0.00,,,0.00,Wunderground v.1.15,2013-01-04 18:45:00,
2013-01-04 11:50:00,48.5,39.9,30.35,NNE,13,14.0,22.0,72,0.00,,,0.00,Wunderground v.1.15,2013-01-04 18:50:00,
2013-01-04 12:00:00,48.5,39.9,30.35,NNE,19,15.0,15.0,72,0.00,,,0.00,Wunderground v.1.15,2013-01-04 19:00:00,
2013-01-04 12:05:00,48.4,39.4,30.35,NE,41,15.0,17.0,71,0.00,,,0.00,Wunderground v.1.15,2013-01-04 19:05:00,
2013-01-04 12:15:00,48.3,39.3,30.34,NE,42,16.0,25.0,71,0.00,,,0.00,Wunderground v.1.15,2013-01-04 19:15:00,
2013-01-04 12:20:00,48.3,39.3,30.34,NNE,32,16.0,16.0,71,0.00,,,0.00,Wunderground v.1.15,2013-01-04 19:20:00,
2013-01-04 12:25:00,48.2,39.6,30.34,NNE,30,16.0,19.0,72,0.00,,,0.00,Wunderground v.1.15,2013-01-04 19:25:00,
2013-01-04 12:30:00,48.3,39.7,30.34,NNE,27,15.0,15.0,72,0.00,,,0.00,Wunderground v.1.15,2013-01-04 19:30:00,
2013-01-04 12:35:00,48.3,39.7,30.34,NNE,32,14.0,25.0,72,0.00,,,0.00,Wunderground v.1.15,2013-01-04 19:35:00,
2013-01-04 12:45:00,48.3,39.7,30.34,NNE,33,16.0,17.0,72,0.00,,,0.00,Wunderground v.1.15,2013-01-04 19:45:00,
2013-01-04 12:50:00,48.4,39.8,30.33,NE,37,16.0,16.0,72,0.00,,,0.00,Wunderground v.1.15,2013-01-04 19:50:00,
2013-01-04 12:55:00,48.5,39.9,30.34,NE,41,15.0,25.0,72,0.00,,,0.00,Wunderground v.1.15,2013-01-04 19:55:00,
2013-01-04 13:00:00,48.6,40.0,30.33,NNE,32,14.0,14.0,72,0.00,,,0.00,Wunderground v.1.15,2013-01-04 20:00:00,
2013-01-04 13:05:00,48.7,40.1,30.33,NNE,21,13.0,22.0,72,0.00,,,0.00,Wunderground v.1.15,2013-01-04 20:05:00,
2013-01-04 13:15:00,48.7,39.7,30.33,North,356,13.0,22.0,71,0.00,,,0.00,Wunderground v.1.15,2013-01-04 20:15:00,
2013-01-04 13:25:00,48.7,39.7,30.33,NE,42,15.0,22.0,71,0.00,,,0.00,Wunderground v.1.15,2013-01-04 20:25:00,
2013-01-04 13:30:00,48.7,39.4,30.32,North,360,15.0,15.0,70,0.00,,,0.00,Wunderground v.1.15,2013-01-04 20:30:00,
2013-01-04 13:35:00,48.7,39.4,30.32,NE,37,15.0,18.0,70,0.00,,,0.00,Wunderground v.1.15,2013-01-04 20:35:00,
2013-01-04 13:40:00,48.8,39.4,30.32,NE,39,14.0,14.0,70,0.00,,,0.00,Wunderground v.1.15,2013-01-04 20:40:00,
2013-01-04 13:45:00,48.9,39.9,30.32,NNE,16,12.0,22.0,71,0.00,,,0.00,Wunderground v.1.15,2013-01-04 20:45:00,
2013-01-04 13:55:00,49.1,40.1,30.32,North,9,11.0,22.0,71,0.00,,,0.00,Wunderground v.1.15,2013-01-04 20:55:00,
2013-01-04 14:00:00,49.4,40.4,30.31,NNE,29,11.0,22.0,71,0.00,,,0.00,Wunderground v.1.15,2013-01-04 21:00:00,
2013-01-04 14:05:00,49.3,39.9,30.31,NE,42,13.0,23.0,70,0.00,,,0.00,Wunderground v.1.15,2013-01-04 21:05:00,
2013-01-04 14:15:00,49.1,39.7,30.32,NNE,33,14.0,23.0,70,0.00,,,0.00,Wunderground v.1.15,2013-01-04 21:15:00,
2013-01-04 14:20:00,49.2,39.8,30.32,North,351,12.0,23.0,70,0.00,,,0.00,Wunderground v.1.15,2013-01-04 21:20:00,
2013-01-04 14:30:00,49.2,39.5,30.32,NNE,33,11.0,23.0,69,0.00,,,0.00,Wunderground v.1.15,2013-01-04 21:30:00,
2013-01-04 14:35:00,49.3,39.6,30.32,NNE,15,12.0,23.0,69,0.00,,,0.00,Wunderground v.1.15,2013-01-04 21:35:00,
2013-01-04 14:40:00,49.3,39.2,30.32,NE,45,13.0,23.0,68,0.00,,,0.00,Wunderground v.1.15,2013-01-04 21:40:00,
2013-01-04 14:45:00,49.3,39.2,30.32,NNE,33,14.0,23.0,68,0.00,,,0.00,Wunderground v.1.15,2013-01-04 21:45:00,
2013-01-04 14:50:00,49.4,39.3,30.32,NE,39,12.0,12.0,68,0.00,,,0.00,Wunderground v.1.15,2013-01-04 21:50:00,
2013-01-04 15:00:00,49.2,38.7,30.31,NNE,33,14.0,14.0,67,0.00,,,0.00,Wunderground v.1.15,2013-01-04 22:00:00,
2013-01-04 15:05:00,49.3,38.8,30.31,NE,34,14.0,20.0,67,0.00,,,0.00,Wunderground v.1.15,2013-01-04 22:05:00,
2013-01-04 15:15:00,49.3,38.8,30.32,NE,48,12.0,20.0,67,0.00,,,0.00,Wunderground v.1.15,2013-01-04 22:15:00,
2013-01-04 15:20:00,49.4,39.3,30.32,NNE,28,12.0,12.0,68,0.00,,,0.00,Wunderground v.1.15,2013-01-04 22:20:00,
2013-01-04 15:25:00,49.5,39.4,30.32,NNE,25,12.0,14.0,68,0.00,,,0.00,Wunderground v.1.15,2013-01-04 22:25:00,
2013-01-04 15:30:00,49.5,39.0,30.32,NNE,12,11.0,20.0,67,0.00,,,0.00,Wunderground v.1.15,2013-01-04 22:30:00,
2013-01-04 15:40:00,49.5,39.0,30.32,NNE,16,11.0,11.0,67,0.00,,,0.00,Wunderground v.1.15,2013-01-04 22:40:00,
2013-01-04 15:45:00,49.5,39.0,30.32,NE,34,12.0,13.0,67,0.00,,,0.00,Wunderground v.1.15,2013-01-04 22:45:00,
2013-01-04 15:50:00,49.5,39.0,30.32,NNE,33,13.0,20.0,67,0.00,,,0.00,Wunderground v.1.15,2013-01-04 22:50:00,
2013-01-04 15:55:00,49.5,39.4,30.33,NNW,338,12.0,20.0,68,0.00,,,0.00,Wunderground v.1.15,2013-01-04 22:55:00,
2013-01-04 16:05:00,49.5,39.4,30.33,NNE,33,9.0,20.0,68,0.00,,,0.00,Wunderground v.1.15,2013-01-04 23:05:00,
2013-01-04 16:15:00,49.5,39.0,30.33,NNE,25,9.0,18.0,67,0.00,,,0.00,Wunderground v.1.15,2013-01-04 23:15:00,
2013-01-04 16:20:00,49.4,38.9,30.33,NE,47,10.0,18.0,67,0.00,,,0.00,Wunderground v.1.15,2013-01-04 23:20:00,
2013-01-04 16:25:00,49.4,39.3,30.33,ENE,66,10.0,18.0,68,0.00,,,0.00,Wunderground v.1.15,2013-01-04 23:25:00,
2013-01-04 16:30:00,49.3,39.2,30.32,NE,45,8.0,8.0,68,0.00,,,0.00,Wunderground v.1.15,2013-01-04 23:30:00,
2013-01-04 16:35:00,49.3,39.2,30.33,NNE,30,7.0,18.0,68,0.00,,,0.00,Wunderground v.1.15,2013-01-04 23:35:00,
2013-01-04 16:45:00,49.3,38.8,30.33,NE,35,9.0,18.0,67,0.00,,,0.00,Wunderground v.1.15,2013-01-04 23:45:00,
2013-01-04 16:50:00,49.3,38.8,30.33,NNE,29,9.0,9.0,67,0.00,,,0.00,Wunderground v.1.15,2013-01-04 23:50:00,
2013-01-04 16:55:00,49.2,39.1,30.32,NE,41,9.0,11.0,68,0.00,,,0.00,Wunderground v.1.15,2013-01-04 23:55:00,
2013-01-04 17:00:00,49.2,39.1,30.32,NNE,32,10.0,10.0,68,0.00,,,0.00,Wunderground v.1.15,2013-01-05 00:00:00,
2013-01-04 17:05:00,49.2,39.5,30.32,NNE,21,10.0,17.0,69,0.00,,,0.00,Wunderground v.1.15,2013-01-05 00:05:00,
2013-01-04 17:15:00,49.1,39.7,30.33,NNE,16,6.0,17.0,70,0.00,,,0.00,Wunderground v.1.15,2013-01-05 00:15:00,
2013-01-04 17:25:00,49.1,40.1,30.33,NNE,19,6.0,17.0,71,0.00,,,0.00,Wunderground v.1.15,2013-01-05 00:25:00,
2013-01-04 17:30:00,49.1,40.1,30.33,NNE,32,7.0,17.0,71,0.00,,,0.00,Wunderground v.1.15,2013-01-05 00:30:00,
2013-01-04 17:35:00,49.0,40.0,30.32,NNE,15,7.0,17.0,71,0.00,,,0.00,Wunderground v.1.15,2013-01-05 00:35:00,
2013-01-04 17:40:00,48.9,39.9,30.33,North,355,7.0,7.0,71,0.00,,,0.00,Wunderground v.1.15,2013-01-05 00:40:00,
2013-01-04 17:45:00,48.9,40.3,30.33,NNE,21,8.0,8.0,72,0.00,,,0.00,Wunderground v.1.15,2013-01-05 00:45:00,
2013-01-04 17:55:00,48.8,40.5,30.33,NNW,348,6.0,17.0,73,0.00,,,0.00,Wunderground v.1.15,2013-01-05 00:55:00,
2013-01-04 18:00:00,48.8,40.5,30.33,NNE,22,5.0,17.0,73,0.00,,,0.00,Wunderground v.1.15,2013-01-05 01:00:00,
2013-01-04 18:05:00,48.7,40.4,30.34,North,8,6.0,17.0,73,0.00,,,0.00,Wunderground v.1.15,2013-01-05 01:05:00,
2013-01-04 18:15:00,48.6,40.7,30.33,NNE,32,7.0,13.0,74,0.00,,,0.00,Wunderground v.1.15,2013-01-05 01:15:00,
2013-01-04 18:20:00,48.6,40.7,30.34,NNW,345,7.0,13.0,74,0.00,,,0.00,Wunderground v.1.15,2013-01-05 01:20:00,
2013-01-04 18:25:00,48.6,40.3,30.34,NNE,21,8.0,13.0,73,0.00,,,0.00,Wunderground v.1.15,2013-01-05 01:25:00,
2013-01-04 18:35:00,48.5,40.2,30.35,NW,315,8.0,13.0,73,0.00,,,0.00,Wunderground v.1.15,2013-01-05 01:35:00,
2013-01-04 18:40:00,48.5,40.2,30.35,North,4,7.0,13.0,73,0.00,,,0.00,Wunderground v.1.15,2013-01-05 01:40:00,
2013-01-04 18:45:00,48.5,40.2,30.34,NNW,348,7.0,13.0,73,0.00,,,0.00,Wunderground v.1.15,2013-01-05 01:45:00,
2013-01-04 18:50:00,48.4,40.1,30.34,NE,37,7.0,7.0,73,0.00,,,0.00,Wunderground v.1.15,2013-01-05 01:50:00,
2013-01-04 18:55:00,48.3,40.0,30.34,NNW,348,7.0,13.0,73,0.00,,,0.00,Wunderground v.1.15,2013-01-05 01:55:00,
2013-01-04 19:05:00,48.3,40.0,30.34,NNE,28,9.0,9.0,73,0.00,,,0.00,Wunderground v.1.15,2013-01-05 02:05:00,
2013-01-04 19:15:00,48.3,40.0,30.34,North,359,6.0,13.0,73,0.00,,,0.00,Wunderground v.1.15,2013-01-05 02:15:00,
2013-01-04 19:20:00,48.3,40.0,30.34,NNE,13,6.0,13.0,73,0.00,,,0.00,Wunderground v.1.15,2013-01-05 02:20:00,
2013-01-04 19:25:00,48.2,39.9,30.34,NNE,27,7.0,13.0,73,0.00,,,0.00,Wunderground v.1.15,2013-01-05 02:25:00,
2013-01-04 19:30:00,48.2,39.9,30.34,NNE,25,8.0,13.0,73,0.00,,,0.00,Wunderground v.1.15,2013-01-05 02:30:00,
2013-01-04 19:35:00,48.2,39.9,30.34,NNW,348,8.0,13.0,73,0.00,,,0.00,Wunderground v.1.15,2013-01-05 02:35:00,
2013-01-04 19:45:00,48.1,39.9,30.34,NE,37,8.0,13.0,73,0.00,,,0.00,Wunderground v.1.15,2013-01-05 02:45:00,
2013-01-04 19:50:00,48.1,39.5,30.34,WNW,283,8.0,13.0,72,0.00,,,0.00,Wunderground v.1.15,2013-01-05 02:50:00,
2013-01-04 19:55:00,48.1,39.5,30.34,NNW,334,9.0,13.0,72,0.00,,,0.00,Wunderground v.1.15,2013-01-05 02:55:00,
2013-01-04 20:05:00,48.2,39.6,30.35,North,359,8.0,15.0,72,0.00,,,0.00,Wunderground v.1.15,2013-01-05 03:05:00,
2013-01-04 20:15:00,48.2,39.6,30.35,NNE,27,7.0,15.0,72,0.00,,,0.00,Wunderground v.1.15,2013-01-05 03:15:00,
2013-01-04 20:25:00,48.1,39.9,30.34,North,11,8.0,15.0,73,0.00,,,0.00,Wunderground v.1.15,2013-01-05 03:25:00,
2013-01-04 20:30:00,48.0,39.8,30.34,NNE,13,8.0,15.0,73,0.00,,,0.00,Wunderground v.1.15,2013-01-05 03:30:00,
2013-01-04 20:35:00,48.0,39.8,30.34,NNE,25,7.0,15.0,73,0.00,,,0.00,Wunderground v.1.15,2013-01-05 03:35:00,
2013-01-04 20:45:00,48.0,39.8,30.34,NE,44,7.0,8.0,73,0.00,,,0.00,Wunderground v.1.15,2013-01-05 03:45:00,
2013-01-04 20:50:00,48.0,39.8,30.34,North,358,6.0,15.0,73,0.00,,,0.00,Wunderground v.1.15,2013-01-05 03:50:00,
2013-01-04 20:55:00,48.0,39.8,30.34,North,351,6.0,15.0,73,0.00,,,0.00,Wunderground v.1.15,2013-01-05 03:55:00,
2013-01-04 21:00:00,48.0,39.8,30.34,North,11,7.0,7.0,73,0.00,,,0.00,Wunderground v.1.15,2013-01-05 04:00:00,
2013-01-04 21:05:00,47.9,39.7,30.34,NNW,336,8.0,8.0,73,0.00,,,0.00,Wunderground v.1.15,2013-01-05 04:05:00,
2013-01-04 21:15:00,48.0,39.8,30.34,North,9,7.0,13.0,73,0.00,,,0.00,Wunderground v.1.15,2013-01-05 04:15:00,
2013-01-04 21:20:00,47.9,39.7,30.34,North,6,8.0,13.0,73,0.00,,,0.00,Wunderground v.1.15,2013-01-05 04:20:00,
2013-01-04 21:30:00,47.9,39.7,30.34,NNW,341,8.0,13.0,73,0.00,,,0.00,Wunderground v.1.15,2013-01-05 04:30:00,
2013-01-04 21:35:00,47.9,39.7,30.33,NNW,334,8.0,13.0,73,0.00,,,0.00,Wunderground v.1.15,2013-01-05 04:35:00,
2013-01-04 21:40:00,47.9,39.7,30.33,North,1,8.0,13.0,73,0.00,,,0.00,Wunderground v.1.15,2013-01-05 04:40:00,
2013-01-04 21:45:00,47.9,39.7,30.33,NNE,28,7.0,14.0,73,0.00,,,0.00,Wunderground v.1.15,2013-01-05 04:45:00,
2013-01-04 21:55:00,47.9,39.7,30.33,North,350,9.0,11.0,73,0.00,,,0.00,Wunderground v.1.15,2013-01-05 04:55:00,
2013-01-04 22:00:00,47.9,39.3,30.33,North,8,9.0,9.0,72,0.00,,,0.00,Wunderground v.1.15,2013-01-05 05:00:00,
2013-01-04 22:05:00,47.9,39.3,30.33,NNE,16,9.0,14.0,72,0.00,,,0.00,Wunderground v.1.15,2013-01-05 05:05:00,
2013-01-04 22:15:00,47.9,39.3,30.33,NNE,16,9.0,15.0,72,0.00,,,0.00,Wunderground v.1.15,2013-01-05 05:15:00,
2013-01-04 22:20:00,47.9,39.3,30.33,North,351,10.0,14.0,72,0.00,,,0.00,Wunderground v.1.15,2013-01-05 05:20:00,
2013-01-04 22:25:00,47.9,39.3,30.33,North,358,10.0,14.0,72,0.00,,,0.00,Wunderground v.1.15,2013-01-05 05:25:00,
2013-01-04 22:35:00,47.9,39.3,30.32,NNE,25,12.0,12.0,72,0.00,,,0.00,Wunderground v.1.15,2013-01-05 05:35:00,
2013-01-04 22:40:00,47.9,39.7,30.32,NNE,12,11.0,11.0,73,0.00,,,0.00,Wunderground v.1.15,2013-01-05 05:40:00,
2013-01-04 22:45:00,47.9,39.7,30.32,NNE,12,10.0,12.0,73,0.00,,,0.00,Wunderground v.1.15,2013-01-05 05:45:00,
2013-01-04 22:50:00,47.9,39.7,30.32,NNE,26,10.0,10.0,73,0.00,,,0.00,Wunderground v.1.15,2013-01-05 05:50:00,
2013-01-04 22:55:00,47.8,39.6,30.32,NNE,19,8.0,14.0,73,0.00,,,0.00,Wunderground v.1.15,2013-01-05 05:55:00,
2013-01-04 23:05:00,47.8,39.9,30.32,North,354,7.0,14.0,74,0.00,,,0.00,Wunderground v.1.15,2013-01-05 06:05:00,
2013-01-04 23:10:00,47.8,39.9,30.32,WNW,298,7.0,7.0,74,0.00,,,0.00,Wunderground v.1.15,2013-01-05 06:10:00,
2013-01-04 23:20:00,47.7,39.8,30.31,NNE,30,8.0,14.0,74,0.00,,,0.00,Wunderground v.1.15,2013-01-05 06:20:00,
2013-01-04 23:25:00,47.7,40.2,30.31,NNW,332,9.0,14.0,75,0.00,,,0.00,Wunderground v.1.15,2013-01-05 06:25:00,
2013-01-04 23:30:00,47.6,40.1,30.32,NNW,333,9.0,9.0,75,0.00,,,0.00,Wunderground v.1.15,2013-01-05 06:30:00,
2013-01-04 23:35:00,47.6,40.4,30.31,NNW,344,9.0,10.0,76,0.00,,,0.00,Wunderground v.1.15,2013-01-05 06:35:00,
2013-01-04 23:45:00,47.5,40.6,30.31,North,354,10.0,15.0,77,0.00,,,0.00,Wunderground v.1.15,2013-01-05 06:45:00,
2013-01-04 23:50:00,47.4,40.6,30.30,NNE,27,10.0,10.0,77,0.00,,,0.00,Wunderground v.1.15,2013-01-05 06:50:00,
2013-01-04 23:55:00,47.3,40.5,30.30,North,11,10.0,17.0,77,0.00,,,0.00,Wunderground v.1.15,2013-01-05 06:55:00,